カタログに戻る

THOR ABLESTAR DEB

運用中LEO
NORAD 261·DEBRIS·🇺🇸 United States

打ち上げ Jun 29, 1961 から Cape Canaveral Space Force Station

Loading…

次のパス (今後24時間)

TLE

最新Source: Space-Track

元期: Sep 8, 2026, 21:14 UTC

1 00261U 61015CH  26251.88489721  .00000043  00000-0  79124-4 0  9999
2 00261  66.6804 203.4605 0095181 276.2783  82.7465 14.01070727323818

AllMySatでTHOR ABLESTAR DEBをリアルタイム追跡

Download on the App Store